Time,TemperatureF,DewpointF,PressureIn,WindDirection,WindDirectionDegrees,WindSpeedMPH,WindSpeedGustMPH,Humidity,HourlyPrecipIn,Conditions,Clouds,dailyrainin,SoftwareType,DateUTC
2013-06-17 00:02:00,65.0,63.0,-100.00,East,100,0.0,2.0,91,0.00,,,-99.99,,2013-06-17 05:02:00,
2013-06-17 01:02:00,64.0,62.0,-100.00,SE,130,3.0,6.0,94,0.00,,,-99.99,,2013-06-17 06:02:00,
2013-06-17 01:22:00,63.0,62.0,-100.00,SE,140,1.0,3.0,94,0.00,,,-99.99,,2013-06-17 06:22:00,
2013-06-17 01:53:00,63.0,62.0,-100.00,South,180,0.0,0.0,95,0.00,,,-99.99,,2013-06-17 06:53:00,
2013-06-17 02:02:00,63.0,62.0,-100.00,SE,125,1.0,2.0,95,0.00,,,-99.99,,2013-06-17 07:02:00,
2013-06-17 02:12:00,63.0,62.0,-100.00,North,0,1.0,1.0,95,0.00,,,-99.99,,2013-06-17 07:12:00,
2013-06-17 02:22:00,62.0,61.0,-100.00,NNE,25,1.0,1.0,96,0.00,,,-99.99,,2013-06-17 07:22:00,
2013-06-17 02:33:00,62.0,61.0,-100.00,NNE,25,1.0,1.0,96,0.00,,,-99.99,,2013-06-17 07:33:00,
2013-06-17 02:53:00,62.0,61.0,-100.00,NNE,15,0.0,0.0,97,0.00,,,-99.99,,2013-06-17 07:53:00,
2013-06-17 03:02:00,62.0,62.0,-100.00,SSE,155,0.0,0.0,97,0.00,,,-99.99,,2013-06-17 08:02:00,
2013-06-17 03:11:00,62.0,62.0,-100.00,SE,140,2.0,3.0,97,0.00,,,-99.99,,2013-06-17 08:11:00,
2013-06-17 03:22:00,62.0,61.0,-100.00,SE,145,0.0,3.0,97,0.00,,,-99.99,,2013-06-17 08:22:00,
2013-06-17 03:34:00,62.0,61.0,-100.00,SSW,210,0.0,0.0,97,0.00,,,-99.99,,2013-06-17 08:34:00,
2013-06-17 04:02:00,62.0,61.0,-100.00,South,170,0.0,2.0,97,0.00,,,-99.99,,2013-06-17 09:02:00,
2013-06-17 04:11:00,62.0,61.0,-100.00,South,185,0.0,0.0,97,0.00,,,-99.99,,2013-06-17 09:11:00,
2013-06-17 04:22:00,62.0,61.0,-100.00,SW,230,0.0,0.0,97,0.00,,,-99.99,,2013-06-17 09:22:00,
2013-06-17 04:34:00,61.0,61.0,-100.00,North,10,1.0,1.0,98,0.00,,,-99.99,,2013-06-17 09:34:00,
2013-06-17 04:43:00,61.0,60.0,-100.00,SE,135,1.0,2.0,98,0.00,,,-99.99,,2013-06-17 09:43:00,
2013-06-17 04:52:00,61.0,61.0,-100.00,SE,130,0.0,2.0,98,0.00,,,-99.99,,2013-06-17 09:52:00,
2013-06-17 05:02:00,61.0,60.0,-100.00,SE,130,0.0,1.0,98,0.00,,,-99.99,,2013-06-17 10:02:00,
2013-06-17 05:12:00,60.0,60.0,-100.00,South,175,0.0,0.0,98,0.00,,,-99.99,,2013-06-17 10:12:00,
2013-06-17 05:22:00,60.0,60.0,-100.00,South,175,0.0,0.0,98,0.00,,,-99.99,,2013-06-17 10:22:00,
2013-06-17 05:33:00,60.0,60.0,-100.00,SE,135,2.0,3.0,98,0.00,,,-99.99,,2013-06-17 10:33:00,
2013-06-17 05:43:00,60.0,60.0,-100.00,SSW,195,2.0,2.0,98,0.00,,,-99.99,,2013-06-17 10:43:00,
2013-06-17 05:53:00,60.0,60.0,-100.00,SW,230,2.0,7.0,98,0.00,,,-99.99,,2013-06-17 10:53:00,
2013-06-17 06:02:00,60.0,60.0,-100.00,NNE,20,2.0,6.0,98,0.00,,,-99.99,,2013-06-17 11:02:00,
2013-06-17 06:12:00,60.0,60.0,-100.00,North,10,0.0,2.0,98,0.00,,,-99.99,,2013-06-17 11:12:00,
2013-06-17 06:23:00,61.0,61.0,-100.00,SSE,160,1.0,2.0,98,0.00,,,-99.99,,2013-06-17 11:23:00,
2013-06-17 06:33:00,61.0,61.0,-100.00,SSE,160,1.0,2.0,98,0.00,,,-99.99,,2013-06-17 11:33:00,
2013-06-17 06:43:00,62.0,62.0,-100.00,South,175,2.0,3.0,98,0.00,,,-99.99,,2013-06-17 11:43:00,
2013-06-17 06:53:00,63.0,62.0,-100.00,SSE,150,3.0,4.0,98,0.00,,,-99.99,,2013-06-17 11:53:00,
2013-06-17 07:02:00,63.0,63.0,-100.00,SE,140,4.0,4.0,97,0.00,,,-99.99,,2013-06-17 12:02:00,
2013-06-17 07:12:00,64.0,63.0,-100.00,SSE,150,1.0,4.0,96,0.00,,,-99.99,,2013-06-17 12:12:00,
2013-06-17 07:23:00,65.0,63.0,-100.00,SSE,160,2.0,4.0,95,0.00,,,-99.99,,2013-06-17 12:23:00,
2013-06-17 07:33:00,65.0,63.0,-100.00,SSE,160,2.0,4.0,95,0.00,,,-99.99,,2013-06-17 12:33:00,
2013-06-17 07:43:00,68.0,64.0,-100.00,South,185,1.0,3.0,87,0.00,,,-99.99,,2013-06-17 12:43:00,
2013-06-17 08:01:00,69.0,64.0,-100.00,South,190,2.0,3.0,83,0.00,,,-99.99,,2013-06-17 13:01:00,
2013-06-17 08:12:00,69.0,63.0,-100.00,South,175,2.0,4.0,78,0.00,,,-99.99,,2013-06-17 13:12:00,
2013-06-17 08:22:00,70.0,62.0,-100.00,South,180,4.0,5.0,76,0.00,,,-99.99,,2013-06-17 13:22:00,
2013-06-17 08:32:00,71.0,62.0,-100.00,South,185,2.0,6.0,73,0.00,,,-99.99,,2013-06-17 13:32:00,
2013-06-17 08:43:00,73.0,63.0,-100.00,SSW,210,1.0,2.0,72,0.00,,,-99.99,,2013-06-17 13:43:00,
2013-06-17 08:52:00,74.0,63.0,-100.00,SSW,205,2.0,4.0,67,0.00,,,-99.99,,2013-06-17 13:52:00,
2013-06-17 09:02:00,74.0,63.0,-100.00,SSW,205,2.0,4.0,67,0.00,,,-99.99,,2013-06-17 14:02:00,
2013-06-17 09:12:00,76.0,61.0,-100.00,SW,215,3.0,6.0,60,0.00,,,-99.99,,2013-06-17 14:12:00,
2013-06-17 09:22:00,77.0,62.0,-100.00,SW,215,4.0,6.0,59,0.00,,,-99.99,,2013-06-17 14:22:00,
2013-06-17 09:34:00,77.0,62.0,-100.00,SW,215,4.0,6.0,59,0.00,,,-99.99,,2013-06-17 14:34:00,
2013-06-17 09:43:00,78.0,59.0,-100.00,SW,215,4.0,6.0,53,0.00,,,-99.99,,2013-06-17 14:43:00,
2013-06-17 09:53:00,80.0,60.0,-100.00,SW,225,5.0,8.0,51,0.00,,,-99.99,,2013-06-17 14:53:00,
2013-06-17 10:01:00,80.0,59.0,-100.00,SW,220,6.0,9.0,49,0.00,,,-99.99,,2013-06-17 15:01:00,
2013-06-17 10:12:00,80.0,59.0,-100.00,SW,220,6.0,9.0,49,0.00,,,-99.99,,2013-06-17 15:12:00,
2013-06-17 10:22:00,80.0,59.0,-100.00,SSW,210,7.0,10.0,49,0.00,,,-99.99,,2013-06-17 15:22:00,
2013-06-17 10:33:00,80.0,59.0,-100.00,SSW,210,7.0,10.0,49,0.00,,,-99.99,,2013-06-17 15:33:00,
2013-06-17 10:43:00,80.0,58.0,-100.00,SSW,210,6.0,11.0,47,0.00,,,-99.99,,2013-06-17 15:43:00,
2013-06-17 10:53:00,81.0,59.0,-100.00,SW,225,6.0,12.0,46,0.00,,,-99.99,,2013-06-17 15:53:00,
2013-06-17 11:02:00,81.0,58.0,-100.00,SW,235,8.0,11.0,46,0.00,,,-99.99,,2013-06-17 16:02:00,
2013-06-17 11:12:00,81.0,59.0,-100.00,North,0,7.0,11.0,47,0.00,,,-99.99,,2013-06-17 16:12:00,
2013-06-17 11:22:00,81.0,59.0,-100.00,SSW,210,6.0,10.0,46,0.00,,,-99.99,,2013-06-17 16:22:00,
2013-06-17 11:33:00,81.0,59.0,-100.00,SSW,210,6.0,10.0,46,0.00,,,-99.99,,2013-06-17 16:33:00,
2013-06-17 11:43:00,82.0,59.0,-100.00,SSW,210,9.0,12.0,46,0.00,,,-99.99,,2013-06-17 16:43:00,
2013-06-17 11:53:00,81.0,58.0,-100.00,SSW,205,8.0,13.0,45,0.00,,,-99.99,,2013-06-17 16:53:00,
2013-06-17 12:02:00,81.0,58.0,-100.00,SSW,205,8.0,13.0,45,0.00,,,-99.99,,2013-06-17 17:02:00,
2013-06-17 12:12:00,83.0,59.0,-100.00,SSW,210,11.0,14.0,45,0.00,,,-99.99,,2013-06-17 17:12:00,
2013-06-17 12:22:00,83.0,59.0,-100.00,SW,225,7.0,16.0,44,0.00,,,-99.99,,2013-06-17 17:22:00,
2013-06-17 12:33:00,83.0,59.0,-100.00,SW,225,7.0,16.0,44,0.00,,,-99.99,,2013-06-17 17:33:00,
2013-06-17 12:43:00,83.0,60.0,-100.00,SW,225,7.0,16.0,44,0.00,,,-99.99,,2013-06-17 17:43:00,
2013-06-17 12:52:00,83.0,60.0,-100.00,SW,225,7.0,16.0,44,0.00,,,-99.99,,2013-06-17 17:52:00,
2013-06-17 13:02:00,84.0,59.0,-100.00,SW,220,11.0,15.0,43,0.00,,,-99.99,,2013-06-17 18:02:00,
2013-06-17 13:12:00,84.0,58.0,-100.00,SSW,200,8.0,15.0,41,0.00,,,-99.99,,2013-06-17 18:12:00,
2013-06-17 13:23:00,85.0,60.0,-100.00,SW,215,9.0,14.0,42,0.00,,,-99.99,,2013-06-17 18:23:00,
2013-06-17 13:33:00,85.0,60.0,-100.00,SSW,210,8.0,12.0,41,0.00,,,-99.99,,2013-06-17 18:33:00,
2013-06-17 13:43:00,86.0,60.0,-100.00,SW,220,7.0,12.0,41,0.00,,,-99.99,,2013-06-17 18:43:00,
2013-06-17 13:53:00,86.0,59.0,-100.00,SW,220,9.0,15.0,40,0.00,,,-99.99,,2013-06-17 18:53:00,
2013-06-17 14:02:00,86.0,58.0,-100.00,SW,235,12.0,21.0,39,0.00,,,-99.99,,2013-06-17 19:02:00,
2013-06-17 14:11:00,87.0,60.0,-100.00,SSW,210,7.0,16.0,39,0.00,,,-99.99,,2013-06-17 19:11:00,
2013-06-17 14:22:00,87.0,60.0,-100.00,SSW,210,7.0,16.0,39,0.00,,,-99.99,,2013-06-17 19:22:00,
2013-06-17 14:33:00,87.0,57.0,-100.00,SW,220,11.0,17.0,37,0.00,,,-99.99,,2013-06-17 19:33:00,
2013-06-17 14:43:00,87.0,58.0,-100.00,SSW,205,8.0,16.0,37,0.00,,,-99.99,,2013-06-17 19:43:00,
2013-06-17 14:53:00,87.0,57.0,-100.00,SSW,205,7.0,15.0,35,0.00,,,-99.99,,2013-06-17 19:53:00,
2013-06-17 15:02:00,88.0,57.0,-100.00,SSW,195,8.0,14.0,35,0.00,,,-99.99,,2013-06-17 20:02:00,
2013-06-17 15:11:00,88.0,57.0,-100.00,SSW,205,10.0,14.0,35,0.00,,,-99.99,,2013-06-17 20:11:00,
2013-06-17 15:22:00,88.0,58.0,-100.00,North,0,9.0,14.0,35,0.00,,,-99.99,,2013-06-17 20:22:00,
2013-06-17 15:34:00,88.0,58.0,-100.00,North,0,9.0,14.0,35,0.00,,,-99.99,,2013-06-17 20:34:00,
2013-06-17 15:43:00,88.0,57.0,-100.00,SSW,210,9.0,13.0,35,0.00,,,-99.99,,2013-06-17 20:43:00,
2013-06-17 15:52:00,88.0,57.0,-100.00,SSW,210,9.0,13.0,35,0.00,,,-99.99,,2013-06-17 20:52:00,
2013-06-17 16:01:00,88.0,57.0,-100.00,SSW,210,9.0,15.0,34,0.00,,,-99.99,,2013-06-17 21:01:00,
2013-06-17 16:12:00,88.0,56.0,-100.00,WSW,245,9.0,16.0,34,0.00,,,-99.99,,2013-06-17 21:12:00,
2013-06-17 16:22:00,88.0,56.0,-100.00,SW,215,7.0,14.0,33,0.00,,,-99.99,,2013-06-17 21:22:00,
2013-06-17 16:33:00,88.0,56.0,-100.00,SSW,205,9.0,12.0,34,0.00,,,-99.99,,2013-06-17 21:33:00,
2013-06-17 16:43:00,87.0,55.0,-100.00,SW,235,9.0,13.0,33,0.00,,,-99.99,,2013-06-17 21:43:00,
2013-06-17 16:52:00,88.0,56.0,-100.00,SW,230,7.0,10.0,33,0.00,,,-99.99,,2013-06-17 21:52:00,
2013-06-17 17:01:00,88.0,57.0,-100.00,SW,230,7.0,12.0,34,0.00,,,-99.99,,2013-06-17 22:01:00,
2013-06-17 17:11:00,88.0,56.0,-100.00,SSW,205,12.0,16.0,34,0.00,,,-99.99,,2013-06-17 22:11:00,
2013-06-17 17:22:00,87.0,56.0,-100.00,SSW,200,7.0,15.0,34,0.00,,,-99.99,,2013-06-17 22:22:00,
2013-06-17 17:33:00,88.0,56.0,-100.00,SW,215,6.0,9.0,33,0.00,,,-99.99,,2013-06-17 22:33:00,
2013-06-17 17:43:00,87.0,56.0,-100.00,SW,230,13.0,17.0,34,0.00,,,-99.99,,2013-06-17 22:43:00,
2013-06-17 17:53:00,87.0,56.0,-100.00,SW,225,11.0,17.0,35,0.00,,,-99.99,,2013-06-17 22:53:00,
2013-06-17 18:02:00,87.0,56.0,-100.00,SW,220,7.0,14.0,35,0.00,,,-99.99,,2013-06-17 23:02:00,
2013-06-17 18:11:00,86.0,56.0,-100.00,SW,225,7.0,12.0,35,0.00,,,-99.99,,2013-06-17 23:11:00,
2013-06-17 18:22:00,88.0,56.0,-100.00,SW,225,7.0,12.0,33,0.00,,,-99.99,,2013-06-17 23:22:00,
2013-06-17 18:32:00,87.0,55.0,-100.00,SSW,200,9.0,14.0,33,0.00,,,-99.99,,2013-06-17 23:32:00,
2013-06-17 18:42:00,87.0,55.0,-100.00,SW,225,9.0,12.0,33,0.00,,,-99.99,,2013-06-17 23:42:00,
2013-06-17 18:53:00,86.0,54.0,-100.00,SW,225,8.0,17.0,33,0.00,,,-99.99,,2013-06-17 23:53:00,
2013-06-17 19:01:00,86.0,54.0,-100.00,SW,235,8.0,17.0,33,0.00,,,-99.99,,2013-06-18 00:01:00,
2013-06-17 19:12:00,86.0,54.0,-100.00,WSW,240,10.0,15.0,33,0.00,,,-99.99,,2013-06-18 00:12:00,
2013-06-17 19:22:00,86.0,54.0,-100.00,SW,230,7.0,12.0,33,0.00,,,-99.99,,2013-06-18 00:22:00,
2013-06-17 19:33:00,86.0,54.0,-100.00,SW,230,7.0,12.0,33,0.00,,,-99.99,,2013-06-18 00:33:00,
2013-06-17 19:43:00,85.0,54.0,-100.00,SW,230,7.0,14.0,34,0.00,,,-99.99,,2013-06-18 00:43:00,
2013-06-17 19:52:00,84.0,54.0,-100.00,WSW,240,7.0,14.0,35,0.00,,,-99.99,,2013-06-18 00:52:00,
2013-06-17 20:01:00,84.0,53.0,-100.00,WSW,240,7.0,14.0,34,0.00,,,-99.99,,2013-06-18 01:01:00,
2013-06-17 20:11:00,83.0,53.0,-100.00,SW,235,7.0,11.0,35,0.00,,,-99.99,,2013-06-18 01:11:00,
2013-06-17 20:23:00,83.0,53.0,-100.00,SW,235,6.0,11.0,35,0.00,,,-99.99,,2013-06-18 01:23:00,
2013-06-17 20:34:00,82.0,53.0,-100.00,WSW,240,5.0,10.0,36,0.00,,,-99.99,,2013-06-18 01:34:00,
2013-06-17 20:53:00,80.0,53.0,-100.00,SW,230,3.0,6.0,38,0.00,,,-99.99,,2013-06-18 01:53:00,
2013-06-17 21:02:00,79.0,53.0,-100.00,SW,230,4.0,6.0,39,0.00,,,-99.99,,2013-06-18 02:02:00,
2013-06-17 21:11:00,78.0,53.0,-100.00,SSW,195,4.0,4.0,42,0.00,,,-99.99,,2013-06-18 02:11:00,
2013-06-17 21:22:00,78.0,53.0,-100.00,SSW,195,4.0,5.0,42,0.00,,,-99.99,,2013-06-18 02:22:00,
2013-06-17 21:34:00,78.0,53.0,-100.00,SSW,210,5.0,7.0,42,0.00,,,-99.99,,2013-06-18 02:34:00,
2013-06-17 21:43:00,78.0,53.0,-100.00,SSW,210,4.0,6.0,42,0.00,,,-99.99,,2013-06-18 02:43:00,
2013-06-17 21:53:00,76.0,53.0,-100.00,SSW,200,4.0,6.0,44,0.00,,,-99.99,,2013-06-18 02:53:00,
2013-06-17 22:02:00,76.0,53.0,-100.00,SSW,200,4.0,6.0,44,0.00,,,-99.99,,2013-06-18 03:02:00,
2013-06-17 22:12:00,75.0,53.0,-100.00,SSW,195,5.0,6.0,46,0.00,,,-99.99,,2013-06-18 03:12:00,
2013-06-17 22:23:00,75.0,54.0,-100.00,SSW,200,4.0,6.0,47,0.00,,,-99.99,,2013-06-18 03:23:00,
2013-06-17 22:34:00,74.0,54.0,-100.00,SSW,200,5.0,6.0,49,0.00,,,-99.99,,2013-06-18 03:34:00,
2013-06-17 22:43:00,73.0,54.0,-100.00,South,190,6.0,8.0,51,0.00,,,-99.99,,2013-06-18 03:43:00,
2013-06-17 22:53:00,73.0,55.0,-100.00,SSW,195,7.0,11.0,52,0.00,,,-99.99,,2013-06-18 03:53:00,
2013-06-17 23:02:00,73.0,55.0,-100.00,SSW,195,7.0,11.0,52,0.00,,,-99.99,,2013-06-18 04:02:00,
2013-06-17 23:12:00,73.0,54.0,-100.00,South,190,7.0,11.0,51,0.00,,,-99.99,,2013-06-18 04:12:00,
2013-06-17 23:23:00,73.0,54.0,-100.00,South,190,7.0,10.0,51,0.00,,,-99.99,,2013-06-18 04:23:00,
2013-06-17 23:34:00,72.0,54.0,-100.00,South,185,6.0,7.0,53,0.00,,,-99.99,,2013-06-18 04:34:00,
2013-06-17 23:43:00,72.0,55.0,-100.00,SSW,200,7.0,9.0,55,0.00,,,-99.99,,2013-06-18 04:43:00,
2013-06-17 23:53:00,71.0,54.0,-100.00,SSW,205,6.0,9.0,54,0.00,,,-99.99,,2013-06-18 04:53:00,